| time (UTC) | temp C | wind direction | speed KPH | gust KPH | rain 1hr cm | rain 24hr cm | rain mn cm | humidity % | barometer mb |
| 20260906174520 | 31 | 266 | 4.8 | 11.3 | 0.00 | 0.00 | 0.00 | 68 | 1009.1 |
| 20260906173017 | 31 | 210 | 4.8 | 9.7 | 0.00 | 0.00 | 0.00 | 73 | 1009.1 |
| 20260906171508 | 30 | 277 | 0.0 | 9.7 | 0.00 | 0.00 | 0.00 | 78 | 1009.1 |
| 20260906170002 | 29 | 254 | 0.0 | 11.3 | 0.00 | 0.00 | 0.00 | 81 | 1009.1 |
| 20260906164600 | 28 | 234 | 3.2 | 8.0 | 0.00 | 0.00 | 0.00 | 84 | 1009.1 |
| 20260906163055 | 28 | 275 | 0.0 | 9.7 | 0.00 | 0.00 | 0.00 | 87 | 1009.2 |
| 20260906161600 | 27 | 295 | 6.4 | 11.3 | 0.00 | 0.00 | 0.00 | 88 | 1009.3 |
| 20260906160053 | 27 | 292 | 4.8 | 11.3 | 0.00 | 0.00 | 0.00 | 90 | 1009.3 |
| 20260906154544 | 26 | 214 | 0.0 | 6.4 | 0.00 | 0.00 | 0.00 | 91 | 1009.4 |
| 20260906153046 | 26 | 284 | 1.6 | 8.0 | 0.00 | 0.00 | 0.00 | 92 | 1009.5 |
| 20260906151543 | 25 | 275 | 0.0 | 6.4 | 0.00 | 0.00 | 0.00 | 92 | 1009.6 |
| 20260906150053 | 25 | 290 | 0.0 | 0.0 | 0.00 | 0.00 | 0.00 | 93 | 1009.4 |
| 20260906144553 | 25 | 279 | 0.0 | 3.2 | 0.00 | 0.00 | 0.00 | 93 | 1009.4 |
| 20260906143039 | 25 | 273 | 1.6 | 9.7 | 0.00 | 0.00 | 0.00 | 93 | 1009.5 |
| 20260906141537 | -17 | 0.0 | 0.0 | 0.00 | 0.00 | 0.00 | 1009.4 | ||
| 20260906140029 | -17 | 0.0 | 0.0 | 0.00 | 0.00 | 0.00 | 1009.1 | ||
| 20260906134522 | -17 | 0.0 | 0.0 | 0.00 | 0.00 | 0.00 | 1008.8 | ||
| 20260906133018 | -17 | 0.0 | 0.0 | 0.00 | 0.00 | 0.00 | 1008.6 | ||
| 20260906131524 | -17 | 0.0 | 0.0 | 0.00 | 0.00 | 0.00 | 1008.5 | ||
| 20260906130010 | -17 | 0.0 | 0.0 | 0.00 | 0.00 | 0.00 | 1008.6 | ||
| 20260906124537 | -17 | 0.0 | 0.0 | 0.00 | 0.00 | 0.00 | 1008.9 | ||
| 20260906123031 | -17 | 0.0 | 0.0 | 0.00 | 0.00 | 0.00 | 1008.9 | ||
| 20260906121515 | -17 | 0.0 | 0.0 | 0.00 | 0.00 | 0.00 | 1009.0 | ||
| 20260906120013 | 24 | 317 | 0.0 | 8.0 | 0.00 | 0.00 | 0.00 | 90 | 1009.1 |
| 20260906114517 | 25 | 324 | 0.0 | 6.4 | 0.00 | 0.00 | 0.00 | 89 | 1009.1 |
| 20260906113010 | 25 | 323 | 0.0 | 8.0 | 0.00 | 0.00 | 0.00 | 87 | 1008.8 |
| 20260906111510 | 25 | 302 | 1.6 | 8.0 | 0.00 | 0.00 | 0.00 | 86 | 1008.7 |
| 20260906110013 | 25 | 300 | 0.0 | 0.0 | 0.00 | 0.00 | 0.00 | 84 | 1008.4 |
| 20260906104516 | 25 | 300 | 0.0 | 0.0 | 0.00 | 0.00 | 0.00 | 84 | 1008.3 |
| 20260906103010 | 25 | 299 | 0.0 | 0.0 | 0.00 | 0.00 | 0.00 | 83 | 1007.9 |
| 20260906101507 | 25 | 299 | 0.0 | 0.0 | 0.00 | 0.00 | 0.00 | 83 | 1007.7 |
| 20260906100007 | 25 | 299 | 0.0 | 0.0 | 0.00 | 0.00 | 0.00 | 84 | 1007.5 |
| 20260906094516 | 25 | 295 | 0.0 | 0.0 | 0.00 | 0.00 | 0.00 | 84 | 1007.7 |
| 20260906093003 | 25 | 271 | 0.0 | 1.6 | 0.00 | 0.00 | 0.00 | 84 | 1008.1 |
| 20260906091544 | 25 | 271 | 0.0 | 0.0 | 0.00 | 0.00 | 0.00 | 84 | 1008.1 |
| 20260906090043 | 25 | 139 | 0.0 | 0.0 | 0.00 | 0.03 | 0.00 | 84 | 1008.0 |
| 20260906084539 | 25 | 142 | 0.0 | 0.0 | 0.00 | 0.03 | 0.00 | 84 | 1008.0 |
| 20260906083038 | 26 | 142 | 0.0 | 0.0 | 0.00 | 0.03 | 0.00 | 83 | 1008.4 |
| 20260906081546 | 26 | 42 | 0.0 | 0.0 | 0.00 | 0.03 | 0.00 | 83 | 1008.6 |
| 20260906080034 | 26 | 42 | 0.0 | 0.0 | 0.00 | 0.03 | 0.00 | 82 | 1008.6 |
| 20260906074533 | 26 | 43 | 0.0 | 0.0 | 0.00 | 0.03 | 0.00 | 81 | 1008.8 |
| 20260906073030 | 26 | 322 | 0.0 | 1.6 | 0.00 | 0.03 | 0.00 | 81 | 1008.8 |
| 20260906071530 | 26 | 302 | 3.2 | 9.7 | 0.00 | 0.03 | 0.00 | 81 | 1008.5 |
| 20260906070030 | 26 | 355 | 1.6 | 6.4 | 0.00 | 0.03 | 0.00 | 82 | 1008.9 |
| 20260906064527 | 26 | 305 | 0.0 | 0.0 | 0.00 | 0.03 | 0.00 | 83 | 1008.9 |
| 20260906063031 | 26 | 305 | 0.0 | 8.0 | 0.00 | 0.03 | 0.00 | 83 | 1009.0 |
| 20260906061534 | 26 | 296 | 0.0 | 0.0 | 0.00 | 0.03 | 0.00 | 82 | 1009.2 |
| 20260906060026 | 26 | 11 | 0.0 | 6.4 | 0.00 | 0.03 | 0.00 | 83 | 1009.4 |
| 20260906054556 | 26 | 338 | 0.0 | 6.4 | 0.00 | 0.03 | 0.00 | 83 | 1009.6 |
| 20260906053053 | 26 | 334 | 0.0 | 0.0 | 0.00 | 0.03 | 0.00 | 82 | 1009.7 |
| 20260906051550 | 26 | 331 | 4.8 | 8.0 | 0.00 | 0.03 | 0.00 | 82 | 1009.7 |
| 20260906050107 | 26 | 348 | 0.0 | 0.0 | 0.00 | 0.03 | 0.00 | 82 | 1009.6 |
| 20260906044553 | 26 | 328 | 0.0 | 8.0 | 0.00 | 0.03 | 0.00 | 82 | 1009.9 |
| 20260906043049 | 26 | 319 | 0.0 | 3.2 | 0.00 | 0.03 | 0.00 | 82 | 1009.6 |
| 20260906041548 | 26 | 327 | 0.0 | 1.6 | 0.00 | 0.03 | 0.00 | 81 | 1009.4 |
| 20260906040048 | 26 | 347 | 0.0 | 0.0 | 0.00 | 0.05 | 0.00 | 80 | 1009.6 |
| 20260906034548 | 26 | 324 | 4.8 | 8.0 | 0.00 | 0.05 | 0.00 | 80 | 1009.6 |
| 20260906033040 | 26 | 322 | 0.0 | 0.0 | 0.00 | 0.05 | 0.00 | 80 | 1009.2 |
| 20260906031546 | 26 | 323 | 0.0 | 0.0 | 0.00 | 0.05 | 0.00 | 79 | 1009.1 |
| 20260906030034 | 26 | 283 | 8.0 | 11.3 | 0.00 | 0.05 | 0.00 | 78 | 1009.1 |
| 20260906024531 | 26 | 337 | 9.7 | 14.5 | 0.00 | 0.05 | 0.00 | 78 | 1009.1 |
| 20260906023031 | 26 | 327 | 6.4 | 12.9 | 0.00 | 0.05 | 0.00 | 79 | 1008.8 |
| 20260906021525 | 26 | 325 | 6.4 | 11.3 | 0.00 | 0.05 | 0.00 | 79 | 1008.6 |
| 20260906020031 | 27 | 322 | 6.4 | 11.3 | 0.00 | 0.05 | 0.00 | 78 | 1008.5 |
| 20260906014519 | 27 | 310 | 6.4 | 11.3 | 0.00 | 0.05 | 0.00 | 76 | 1008.3 |
| 20260906013015 | 27 | 315 | 0.0 | 9.7 | 0.00 | 0.05 | 0.00 | 75 | 1008.1 |
| 20260906011514 | 27 | 323 | 6.4 | 12.9 | 0.00 | 0.05 | 0.00 | 74 | 1008.0 |
| 20260906010008 | 27 | 323 | 8.0 | 14.5 | 0.00 | 0.05 | 0.05 | 73 | 1008.1 |
| 20260906004508 | 28 | 344 | 9.7 | 14.5 | 0.00 | 0.05 | 0.05 | 72 | 1007.9 |
| 20260906003013 | 28 | 348 | 0.0 | 1.6 | 0.00 | 0.05 | 0.05 | 70 | 1007.4 |
| 20260906001621 | 28 | 331 | 0.0 | 11.3 | 0.00 | 0.05 | 0.05 | 70 | 1007.0 |
| 20260906000036 | 28 | 310 | 3.2 | 11.3 | 0.00 | 0.05 | 0.05 | 69 | 1006.7 |
| 20260905234535 | 28 | 342 | 0.0 | 14.5 | 0.00 | 0.05 | 0.05 | 69 | 1006.4 |
| 20260905233036 | 28 | 315 | 20.9 | 25.7 | 0.00 | 0.05 | 0.05 | 67 | 1006.3 |
| 20260905231534 | 28 | 334 | 12.9 | 29.0 | 0.00 | 0.05 | 0.05 | 70 | 1006.2 |
| 20260905230031 | 31 | 9 | 19.3 | 32.2 | 0.00 | 0.05 | 0.05 | 62 | 1006.3 |
| 20260905224530 | 32 | 171 | 3.2 | 16.1 | 0.00 | 0.05 | 0.05 | 64 | 1006.0 |
| 20260905223036 | 32 | 161 | 17.7 | 29.0 | 0.00 | 0.05 | 0.05 | 61 | 1005.9 |
| 20260905221538 | 33 | 360 | 11.3 | 25.7 | 0.00 | 0.05 | 0.05 | 59 | 1005.7 |
| 20260905220028 | 33 | 192 | 12.9 | 25.7 | 0.00 | 0.05 | 0.05 | 58 | 1005.4 |
| 20260905214525 | 33 | 167 | 11.3 | 25.7 | 0.00 | 0.05 | 0.05 | 61 | 1005.6 |
| 20260905213100 | 33 | 180 | 11.3 | 33.8 | 0.00 | 0.05 | 0.05 | 60 | 1005.5 |
| 20260905211552 | 34 | 182 | 14.5 | 35.4 | 0.00 | 0.05 | 0.05 | 58 | 1005.6 |
| 20260905210105 | 34 | 225 | 19.3 | 33.8 | 0.00 | 0.08 | 0.05 | 56 | 1005.8 |
| 20260905204548 | 34 | 219 | 12.9 | 35.4 | 0.00 | 0.08 | 0.05 | 57 | 1005.9 |
| 20260905203045 | 34 | 207 | 20.9 | 33.8 | 0.00 | 0.08 | 0.05 | 54 | 1006.1 |
| 20260905201543 | 34 | 159 | 19.3 | 32.2 | 0.00 | 0.08 | 0.05 | 53 | 1006.5 |
| 20260905200055 | 34 | 198 | 16.1 | 30.6 | 0.00 | 0.10 | 0.05 | 57 | 1006.6 |
| 20260905194538 | 33 | 223 | 22.5 | 35.4 | 0.00 | 0.10 | 0.05 | 57 | 1006.9 |
| 20260905193035 | 33 | 182 | 14.5 | 33.8 | 0.00 | 0.10 | 0.05 | 59 | 1007.3 |
| 20260905191540 | 33 | 165 | 16.1 | 30.6 | 0.00 | 0.10 | 0.05 | 59 | 1007.5 |
| 20260905190031 | 33 | 184 | 17.7 | 37.0 | 0.00 | 0.13 | 0.05 | 59 | 1007.5 |
| 20260905184535 | 34 | 360 | 17.7 | 29.0 | 0.00 | 0.13 | 0.05 | 58 | 1007.7 |
| 20260905183029 | 34 | 171 | 12.9 | 32.2 | 0.00 | 0.13 | 0.05 | 57 | 1007.7 |
| 20260905181527 | 34 | 171 | 9.7 | 30.6 | 0.00 | 0.13 | 0.05 | 56 | 1008.0 |
| 20260905180024 | 34 | 225 | 12.9 | 25.7 | 0.00 | 0.13 | 0.05 | 55 | 1008.4 |